9HGIG MKJS-KMIA

Flight info

Callsign 9HGIG
Flight time 1h 14m
Altitude 40000
Route ALTIB UM779 ZEUSS VIICE2
Aircraft A346/H-SDE2E3FGHIJ3J4J5M1RWXY/LB1D1

Departure

Time 2026-04-30 20:45
Airport Sangster International Airport (MKJS)

Arrival

Time 2026-04-30 22:00
Airport Miami International Airport (KMIA)
Time Latitude Longitude Altitude Speed Heading
2026-04-30 20:44 18.49913 -77.92384 41 ft 0 kts 65°
2026-04-30 20:45 18.50299 -77.91494 53 ft 144 kts 65°
2026-04-30 20:45 18.50765 -77.90416 592 ft 169 kts 65°
2026-04-30 20:45 18.51253 -77.89300 1558 ft 168 kts 64°
2026-04-30 20:46 18.53664 -77.86178 3597 ft 207 kts 47°
2026-04-30 20:46 18.54675 -77.85003 4175 ft 224 kts 51°
2026-04-30 20:47 18.57005 -77.82423 5302 ft 268 kts 32°
2026-04-30 20:47 18.58814 -77.81810 6183 ft 281 kts
2026-04-30 20:48 18.62705 -77.82618 8338 ft 289 kts 345°
2026-04-30 20:48 18.64668 -77.83157 9406 ft 293 kts 345°
2026-04-30 20:48 18.66661 -77.83703 10382 ft 299 kts 344°
2026-04-30 20:48 18.68729 -77.84269 11128 ft 315 kts 345°
2026-04-30 20:49 18.70912 -77.84861 11769 ft 333 kts 345°
2026-04-30 20:49 18.73194 -77.85475 12399 ft 350 kts 345°
2026-04-30 20:49 18.75622 -77.86130 12987 ft 368 kts 345°
2026-04-30 20:50 18.80765 -77.87512 14370 ft 388 kts 345°
2026-04-30 20:50 18.83372 -77.88212 15181 ft 393 kts 345°
2026-04-30 20:50 18.86034 -77.88926 16033 ft 397 kts 345°
2026-04-30 20:50 18.88734 -77.89651 16891 ft 401 kts 345°
2026-04-30 20:51 18.91464 -77.90383 17699 ft 407 kts 345°
2026-04-30 20:51 18.96990 -77.91872 19203 ft 416 kts 345°
2026-04-30 20:51 18.99810 -77.92633 19967 ft 419 kts 345°
2026-04-30 20:52 19.02660 -77.93404 20755 ft 423 kts 345°
2026-04-30 20:52 19.05538 -77.94178 21466 ft 427 kts 345°
2026-04-30 20:52 19.11334 -77.95741 22887 ft 436 kts 345°
2026-04-30 20:53 19.14305 -77.96540 23558 ft 441 kts 345°
2026-04-30 20:53 19.17326 -77.97244 24129 ft 446 kts 348°
2026-04-30 20:53 19.20374 -77.97791 24720 ft 450 kts 350°
2026-04-30 20:54 19.26636 -77.98799 25925 ft 458 kts 350°
2026-04-30 20:54 19.29804 -77.99304 26535 ft 462 kts 350°
2026-04-30 20:54 19.33001 -77.99813 27119 ft 466 kts 350°
2026-04-30 20:55 19.39455 -78.00845 28288 ft 475 kts 350°
2026-04-30 20:55 19.42738 -78.01374 28873 ft 479 kts 350°
2026-04-30 20:55 19.46042 -78.01904 29568 ft 480 kts 350°
2026-04-30 20:56 19.52584 -78.02948 31174 ft 474 kts 349°
2026-04-30 20:56 19.55856 -78.03469 31966 ft 472 kts 349°
2026-04-30 20:56 19.62320 -78.04504 33540 ft 469 kts 348°
2026-04-30 20:57 19.65543 -78.05023 34280 ft 468 kts 348°
2026-04-30 20:57 19.68766 -78.05543 34972 ft 466 kts 348°
2026-04-30 20:57 19.71965 -78.06060 35676 ft 464 kts 347°
2026-04-30 20:58 19.78313 -78.07093 37114 ft 457 kts 348°
2026-04-30 20:58 19.81413 -78.07591 37788 ft 454 kts 348°
2026-04-30 20:58 19.84544 -78.08094 38403 ft 453 kts 347°
2026-04-30 20:58 19.87671 -78.08599 38822 ft 454 kts 347°
2026-04-30 20:59 19.93913 -78.09613 39461 ft 458 kts 347°
2026-04-30 20:59 19.97070 -78.10125 39779 ft 459 kts 347°
2026-04-30 21:00 20.03428 -78.11155 39923 ft 462 kts 347°
2026-04-30 21:00 20.09799 -78.12189 39938 ft 462 kts 348°
2026-04-30 21:01 20.19312 -78.13729 39932 ft 462 kts 348°
2026-04-30 21:02 20.28819 -78.15271 39928 ft 462 kts 348°
2026-04-30 21:02 20.35153 -78.16300 39925 ft 462 kts 348°
2026-04-30 21:03 20.41520 -78.17336 39931 ft 462 kts 348°
2026-04-30 21:03 20.47855 -78.18367 39926 ft 461 kts 348°
2026-04-30 21:04 20.54216 -78.19403 39926 ft 461 kts 348°
2026-04-30 21:04 20.63750 -78.20957 39923 ft 461 kts 348°
2026-04-30 21:05 20.70059 -78.21987 39922 ft 461 kts 348°
2026-04-30 21:05 20.76413 -78.23028 39928 ft 461 kts 348°
2026-04-30 21:06 20.82763 -78.24066 39924 ft 460 kts 348°
2026-04-30 21:06 20.89097 -78.25100 39925 ft 460 kts 348°
2026-04-30 21:07 20.95396 -78.26131 39925 ft 460 kts 348°
2026-04-30 21:07 21.01739 -78.27171 39922 ft 460 kts 348°
2026-04-30 21:08 21.08080 -78.28211 39921 ft 460 kts 348°
2026-04-30 21:08 21.14383 -78.29246 39916 ft 460 kts 348°
2026-04-30 21:09 21.20725 -78.30288 39916 ft 460 kts 348°
2026-04-30 21:09 21.27069 -78.31332 39917 ft 460 kts 348°
2026-04-30 21:10 21.33364 -78.32368 39917 ft 460 kts 348°
2026-04-30 21:10 21.39716 -78.33418 39926 ft 460 kts 349°
2026-04-30 21:11 21.45991 -78.34458 39916 ft 458 kts 349°
2026-04-30 21:11 21.51274 -78.35326 39915 ft 457 kts 349°
2026-04-30 21:12 21.57531 -78.36357 39913 ft 457 kts 349°
2026-04-30 21:12 21.63826 -78.37397 39913 ft 457 kts 349°
2026-04-30 21:13 21.70124 -78.38438 39911 ft 457 kts 349°
2026-04-30 21:13 21.76420 -78.39489 39913 ft 455 kts 350°
2026-04-30 21:14 21.82625 -78.40515 39914 ft 453 kts 350°
2026-04-30 21:14 21.88876 -78.41549 39914 ft 453 kts 350°
2026-04-30 21:15 21.95118 -78.42584 39918 ft 453 kts 350°
2026-04-30 21:15 22.01354 -78.43620 39919 ft 453 kts 350°
2026-04-30 21:16 22.07557 -78.44655 39927 ft 451 kts 351°
2026-04-30 21:16 22.13765 -78.45689 39923 ft 450 kts 351°
2026-04-30 21:17 22.19921 -78.46713 39933 ft 450 kts 351°
2026-04-30 21:17 22.26119 -78.47746 39932 ft 450 kts 351°
2026-04-30 21:18 22.32312 -78.48780 39934 ft 450 kts 351°
2026-04-30 21:18 22.38476 -78.49809 39943 ft 450 kts 350°
2026-04-30 21:19 22.44675 -78.50846 39936 ft 450 kts 350°
2026-04-30 21:19 22.50839 -78.51882 39946 ft 451 kts 350°
2026-04-30 21:20 22.57046 -78.52924 39949 ft 451 kts 350°
2026-04-30 21:20 22.63255 -78.53966 39950 ft 451 kts 350°
2026-04-30 21:21 22.69424 -78.55004 39962 ft 451 kts 350°
2026-04-30 21:22 22.78782 -78.56586 39955 ft 453 kts 349°
2026-04-30 21:23 22.91183 -78.58917 39962 ft 453 kts 349°
2026-04-30 21:23 23.00521 -78.60680 39963 ft 453 kts 349°
2026-04-30 21:24 23.06746 -78.61857 39964 ft 454 kts 349°
2026-04-30 21:24 23.12943 -78.63024 39959 ft 454 kts 349°
2026-04-30 21:25 23.22303 -78.64791 39969 ft 454 kts 349°
2026-04-30 21:26 23.31621 -78.66553 39969 ft 454 kts 349°
2026-04-30 21:27 23.40975 -78.68322 39975 ft 454 kts 349°
2026-04-30 21:27 23.47199 -78.69502 39976 ft 453 kts 349°
2026-04-30 21:28 23.56503 -78.71270 39971 ft 453 kts 349°
2026-04-30 21:29 23.65825 -78.73043 39988 ft 453 kts 349°
2026-04-30 21:30 23.81299 -78.75994 39981 ft 452 kts 348°
2026-04-30 21:31 23.96664 -78.79482 39968 ft 450 kts 341°
2026-04-30 21:32 24.05301 -78.83302 39982 ft 445 kts 333°
2026-04-30 21:32 24.10707 -78.86633 39979 ft 445 kts 329°
2026-04-30 21:33 24.18680 -78.91903 39976 ft 445 kts 328°
2026-04-30 21:34 24.23954 -78.95400 39982 ft 445 kts 328°
2026-04-30 21:34 24.31919 -79.00685 39979 ft 445 kts 328°
2026-04-30 21:35 24.37194 -79.04189 39896 ft 442 kts 328°
2026-04-30 21:35 24.39828 -79.05943 39341 ft 441 kts 329°
2026-04-30 21:35 24.42432 -79.07679 38604 ft 445 kts 329°
2026-04-30 21:36 24.45093 -79.09451 37785 ft 448 kts 329°
2026-04-30 21:36 24.47776 -79.11234 37003 ft 450 kts 329°
2026-04-30 21:37 24.55856 -79.16608 33470 ft 460 kts 329°
2026-04-30 21:37 24.58597 -79.18434 32821 ft 458 kts 329°
2026-04-30 21:37 24.61326 -79.20254 32021 ft 460 kts 329°
2026-04-30 21:37 24.64078 -79.22089 31220 ft 462 kts 329°
2026-04-30 21:38 24.66811 -79.23915 30416 ft 465 kts 329°
2026-04-30 21:38 24.69600 -79.25782 29545 ft 469 kts 328°
2026-04-30 21:38 24.72394 -79.27650 28673 ft 470 kts 328°
2026-04-30 21:38 24.75188 -79.29520 27980 ft 467 kts 328°
2026-04-30 21:39 24.77949 -79.31370 27455 ft 460 kts 328°
2026-04-30 21:39 24.80641 -79.33175 26885 ft 456 kts 328°
2026-04-30 21:39 24.83339 -79.34982 26342 ft 451 kts 328°
2026-04-30 21:39 24.86004 -79.36767 25850 ft 445 kts 328°
2026-04-30 21:40 24.88639 -79.38532 25355 ft 440 kts 328°
2026-04-30 21:40 24.91242 -79.40279 24877 ft 435 kts 327°
2026-04-30 21:40 24.93823 -79.42011 24395 ft 431 kts 327°
2026-04-30 21:40 24.96374 -79.43729 23925 ft 426 kts 328°
2026-04-30 21:41 24.98867 -79.45407 23467 ft 422 kts 328°
2026-04-30 21:41 25.01378 -79.47094 22933 ft 417 kts 328°
2026-04-30 21:41 25.03846 -79.48754 22422 ft 413 kts 328°
2026-04-30 21:41 25.06288 -79.50398 21923 ft 409 kts 328°
2026-04-30 21:42 25.08711 -79.52030 21418 ft 405 kts 328°
2026-04-30 21:42 25.11110 -79.53645 20930 ft 402 kts 327°
2026-04-30 21:42 25.13464 -79.55229 20431 ft 399 kts 327°
2026-04-30 21:42 25.15831 -79.56824 19960 ft 396 kts 327°
2026-04-30 21:43 25.18184 -79.58411 19445 ft 394 kts 327°
2026-04-30 21:43 25.20519 -79.59987 18972 ft 392 kts 327°
2026-04-30 21:43 25.22840 -79.61555 18484 ft 390 kts 327°
2026-04-30 21:43 25.25132 -79.63104 17972 ft 389 kts 327°
2026-04-30 21:44 25.27432 -79.64661 17439 ft 386 kts 327°
2026-04-30 21:44 25.29721 -79.66210 16963 ft 383 kts 327°
2026-04-30 21:44 25.31988 -79.67747 16480 ft 380 kts 327°
2026-04-30 21:44 25.34236 -79.69271 15998 ft 377 kts 327°
2026-04-30 21:45 25.36455 -79.70800 15517 ft 374 kts 324°
2026-04-30 21:45 25.38489 -79.72586 15032 ft 370 kts 316°
2026-04-30 21:45 25.40244 -79.74654 14777 ft 372 kts 308°
2026-04-30 21:45 25.41811 -79.76975 14728 ft 378 kts 305°
2026-04-30 21:46 25.43318 -79.79317 14266 ft 376 kts 304°
2026-04-30 21:46 25.44828 -79.81686 13774 ft 373 kts 304°
2026-04-30 21:46 25.46318 -79.84020 13246 ft 369 kts 304°
2026-04-30 21:46 25.47807 -79.86351 12741 ft 365 kts 304°
2026-04-30 21:47 25.49293 -79.88673 12242 ft 361 kts 304°
2026-04-30 21:47 25.50741 -79.90934 11782 ft 357 kts 304°
2026-04-30 21:47 25.52173 -79.93172 11295 ft 354 kts 305°
2026-04-30 21:47 25.53566 -79.95347 11032 ft 343 kts 305°
2026-04-30 21:48 25.54926 -79.97470 10861 ft 329 kts 305°
2026-04-30 21:48 25.56231 -79.99509 10687 ft 317 kts 304°
2026-04-30 21:48 25.57480 -80.01463 10534 ft 305 kts 304°
2026-04-30 21:48 25.58671 -80.03326 10388 ft 293 kts 304°
2026-04-30 21:49 25.59829 -80.05138 10266 ft 282 kts 304°
2026-04-30 21:49 25.60946 -80.06886 10149 ft 272 kts 304°
2026-04-30 21:49 25.62031 -80.08585 10047 ft 267 kts 304°
2026-04-30 21:49 25.62462 -80.09260 9942 ft 267 kts 304°
2026-04-30 21:50 25.63193 -80.10408 9688 ft 268 kts 304°
2026-04-30 21:50 25.64276 -80.12110 9345 ft 268 kts 304°
2026-04-30 21:50 25.65281 -80.13844 9029 ft 266 kts 300°
2026-04-30 21:50 25.66163 -80.15675 8895 ft 273 kts 296°
2026-04-30 21:51 25.66990 -80.17593 8898 ft 276 kts 295°
2026-04-30 21:51 25.67814 -80.19525 8581 ft 276 kts 295°
2026-04-30 21:51 25.68635 -80.21451 8251 ft 274 kts 295°
2026-04-30 21:51 25.69438 -80.23342 7955 ft 272 kts 295°
2026-04-30 21:52 25.70245 -80.25243 7650 ft 270 kts 294°
2026-04-30 21:52 25.70938 -80.27170 7334 ft 268 kts 284°
2026-04-30 21:52 25.71178 -80.29210 7020 ft 266 kts 271°
2026-04-30 21:52 25.71117 -80.31261 6719 ft 265 kts 268°
2026-04-30 21:53 25.71019 -80.33302 6404 ft 264 kts 267°
2026-04-30 21:53 25.70915 -80.35334 6081 ft 262 kts 267°
2026-04-30 21:53 25.70816 -80.37351 5763 ft 261 kts 267°
2026-04-30 21:53 25.70712 -80.39339 5474 ft 261 kts 267°
2026-04-30 21:54 25.70608 -80.41349 5185 ft 259 kts 267°
2026-04-30 21:54 25.70505 -80.43345 4880 ft 258 kts 267°
2026-04-30 21:54 25.70406 -80.45311 4584 ft 252 kts 267°
2026-04-30 21:54 25.70368 -80.47238 4274 ft 247 kts 277°
2026-04-30 21:55 25.71043 -80.48968 3961 ft 247 kts 304°
2026-04-30 21:55 25.72298 -80.50222 3669 ft 249 kts 328°
2026-04-30 21:55 25.73951 -80.50737 3410 ft 250 kts 356°
2026-04-30 21:55 25.75640 -80.50334 3101 ft 250 kts 26°
2026-04-30 21:56 25.76969 -80.49195 3004 ft 230 kts 43°
2026-04-30 21:56 25.77824 -80.47801 2875 ft 213 kts 74°
2026-04-30 21:56 25.78081 -80.46211 2597 ft 206 kts 89°
2026-04-30 21:56 25.78127 -80.44664 2374 ft 198 kts 94°
2026-04-30 21:57 25.78146 -80.43143 2141 ft 191 kts 93°
2026-04-30 21:57 25.78184 -80.41714 1873 ft 182 kts 90°
2026-04-30 21:57 25.78242 -80.40354 1576 ft 169 kts 92°
2026-04-30 21:57 25.78298 -80.39100 1362 ft 155 kts 94°
2026-04-30 21:58 25.78345 -80.37963 1147 ft 142 kts 92°
2026-04-30 21:58 25.78393 -80.36868 1010 ft 141 kts 96°
2026-04-30 21:58 25.78429 -80.35791 831 ft 139 kts 91°
2026-04-30 21:58 25.78465 -80.34718 688 ft 141 kts 91°
2026-04-30 21:59 25.78531 -80.33638 475 ft 137 kts 91°
2026-04-30 21:59 25.78568 -80.32596 268 ft 134 kts 90°
2026-04-30 21:59 25.78611 -80.31561 67 ft 133 kts 90°
2026-04-30 22:00 25.78674 -80.30060 26 ft 39 kts 87°
2026-04-30 22:00 25.78773 -80.29832 27 ft 15 kts 342°
2026-04-30 22:00 25.78833 -80.29849 28 ft 6 kts 336°
2026-04-30 22:01 25.78863 -80.29893 30 ft 9 kts 287°
2026-04-30 22:01 25.78868 -80.29980 34 ft 14 kts 270°
2026-04-30 22:01 25.78877 -80.30107 28 ft 19 kts 301°
2026-04-30 22:01 25.78971 -80.30129 29 ft 16 kts 10°
2026-04-30 22:02 25.79093 -80.30126 30 ft 19 kts 358°
2026-04-30 22:02 25.79130 -80.30127 30 ft 0 kts 358°
2026-04-30 22:02 25.79146 -80.30129 30 ft 4 kts 344°
2026-04-30 22:02 25.79159 -80.30157 30 ft 7 kts 272°
2026-04-30 22:03 25.79160 -80.30178 30 ft 2 kts 273°
2026-04-30 22:03 25.79160 -80.30190 30 ft 1 kts 267°
2026-04-30 22:03 25.79159 -80.30198 30 ft 1 kts 268°
2026-04-30 22:03 25.79159 -80.30202 30 ft 0 kts 268°